STARLINK-1882, 46784

Orbit data source: Space-Track

STARLINK-1882, 46784 is a payload satellite owned by SpaceX/Seattle (US) in LEO that was launched on Sat, 24 Oct 2020 UTC via an FALCON 9 launch vehicle from the Air Force Eastern Test Range (AFETR). Payload-class satellites include a variety of spacecraft equipped with specific instruments for various scientific and technological missions. These include communications satellites like Starlink; space stations such as the ISS; scientific satellites like the Hubble; Earth observation satellites from companies like Planet Labs, Umbra, and HawkEye 360; GPS; miniature CubeSats for education and research; and military/defense satellites.

Loading next visibility...
Identifier
46784, 2020-074AX
Orbit
LEO
Last TLE update
11 hours ago
Origin
Manufacturer
SpaceX/Seattle
Mission
Operational Commercial Communications
Bus & Motor
STARLINK, Unknown motor
Mass
260 kg wet, ~248 kg dry
Launch date (UTC)
2020-10-24 (5 years ago)
Launch vehicle
FALCON 9
Launch site
Air Force Eastern Test Range (AFETR)
Object type
Payload
Rocket body
Debris
Shape & HBR
Box + 1 Pan, 4.4 m
Radar Cross Section
13.562 m², Large (>1 m²)

Expand to show TLE details & history

TLE from 11 hours ago
0 STARLINK-1882
1 46784U 20074AX  25199.52389094 -.00001143  00000-0 -57852-4 0  9990
2 46784  53.0549 283.0599 0001132  96.3330 263.7788 15.06393192261519
Epoch: 2025-07-18T12:34Z
TLE epoch observation values (Epoch: 2025-07-18T12:34:24.177Z)
Latitude
-0°
Longitude
157.88504°
Altitude
548.197 km
Speed
7.589 km/s
True Right ascension
18h 52m 14s
True Declination
0° 00' 00"
Sunlit
Object was in full shadow at epoch
Visualization orbit readout
Latitude
6.96728°
Longitude
161.03662°
Altitude
547.464 km
Speed
7.59 km/s
Apparent Right ascension
21h 15m 44s
Apparent Declination
-19° 49' 37"
Sunlit
Object is in full shadow
Visualization observer readout
Local Sidereal Time
12:33:08
Azimuth
79.437° E
Elevation
-43.446°
Doppler factor
1
Orbital elements
Apogee altitude
548.287 km
Perigee altitude
546.719 km
Semi-major axis
6,925.64 km
Eccentricity
0.00011
Inclination
53.0549°
RAAN
283.0599°
Arg. of periapsis
96.333°
True anomaly
263.7659°
Mean anomaly
263.7788°
Eccentric anomaly
263.77235°
Mean motion
3.76577 °/min
Orbital period
95.6 mins
BSTAR
-0.000057852
Loading maneuver chart data...
Loading SW <> Apogee altitude chart data...
|